Regional Weather Roundup
Issued by NWS Green Bay, WI

Home | Current Version | Previous Version | Graphics & Text | Print | Product List | Glossary Off
Versions: 1 2 3 4 5 6 7 8 9 10 11 12 13 14 15 16 17 18 19 20 21 22 23 24 25 26 27 28 29 30 31 32 33 34 35 36 37 38 39 40 41 42 43 44 45 46 47 48 49 50

000
ASUS43 KGRB 032059
RWRGRB

NORTH-CENTRAL AND NORTHEAST WISCONSIN REGIONAL WEATHER ROUNDUP
NATIONAL WEATHER SERVICE GREEN BAY WI
300 PM CST TUE MAR 03 2015

WIZ005-009-010>012-018-019-032200-
NORTH CENTRAL WISCONSIN

CITY           SKY/WX    TMP DP  RH WIND       PRES   REMARKS
IRONWOOD       CLOUDY    25  19  80 W16G22    29.49S
MANITOWISH WTR NOT AVBL
ARBOR VITAE    NOT AVBL
EAGLE RIVER    NOT AVBL
LAND O LAKES   NOT AVBL
RHINELANDER    CLOUDY    26  18  71 W16       29.50R
PHILLIPS       CLOUDY    25  18  76 NW8G16    29.53R
ANTIGO         NOT AVBL
TOMAHAWK       NOT AVBL
MERRILL        NOT AVBL
$$

WIZ013-073-032200-
NORTHEAST WISCONSIN

CITY           SKY/WX    TMP DP  RH WIND       PRES   REMARKS
IRON MOUNTAIN  CLOUDY    27  17  66 W12       29.47F
MARINETTE      PTSUNNY   28  21  74 W12       29.51F
$$

WIZ017-030-035>037-045-032200-
CENTRAL WISCONSIN

CITY           SKY/WX    TMP DP  RH WIND       PRES   REMARKS
MEDFORD        NOT AVBL
WAUSAU         CLOUDY    26  18  71 W18       29.54R
MOSINEE        CLOUDY    27  19  74 W17G28    29.57R
MARSHFIELD     CLOUDY    28  19  69 NW15      29.58R
WISC RAPIDS    CLOUDY    28  20  71 W14G21    29.61R
STEVENS POINT  NOT AVBL
WAUPACA        NOT AVBL
SHAWANO        NOT AVBL
CLINTONVILLE   CLOUDY    28  21  74 W12G20    29.56S
$$

WIZ038-039-048-051-032200-
FOX VALLEY

CITY           SKY/WX    TMP DP  RH WIND       PRES   REMARKS
NWS GREEN BAY  CLOUDY    28  23  81 W15       29.55S
APPLETON       CLOUDY    27  21  80 W17G23    29.57R
OSHKOSH        CLOUDY    28  22  78 W14G21    29.58R
FOND DU LAC    CLOUDY    29  23  78 W17       29.58R
$$

WIZ022-050-052-032200-
EAST CENTRAL WISCONSIN

CITY           SKY/WX    TMP DP  RH WIND       PRES   REMARKS
STURGEON BAY   CLOUDY    27  23  86 W14       29.54S
MANITOWOC      NOT AVBL
SHEBOYGAN      CLOUDY    30  23  75 W18G31    29.56R
$$

LMZ563-521-522-541>543-032200-
LAKESHORE

STATION/POSITION TIME  TEMP    WIND        PRES    VSBY  WAVE
                       AIR SEA DIR/SP/G                  HT/PER
                 (UTC) (F)     (DEG/KT/KT) (MB)    (MI)  (FT/S)
SHEBOYGAN LKSHOR 2000   31     250/  4/  6 1001.7F
KEWAUNEE LKSHORE 2000   29     270/ 11/ 17  999.5F
NORTHPORT PIER   2000   28     200/  5/  9  999.7F
SISTER BAY LKSHO 2000   30     260/ 13/ 16   N/A
CHAMBERS ISLAND  2000   29     240/  8/ 13 1000.3F
MENOMINEE LKSHOR 2000   29     270/ 11     1000.6F
$$



USA.gov is the U.S. government's official web portal to all federal, state and local government web resources and services.